Regional Weather Roundup
Issued by NWS

Home | Current Version | Previous Version | Graphics & Text | Print | Product List | Glossary Off
Versions: 1 2 3 4 5 6 7 8 9 10 11 12 13 14 15 16 17 18 19 20 21 22 23 24 25 26 27 28 29 30 31 32 33 34 35 36 37 38 39 40 41 42 43 44 45 46 47 48 49 50

000
ASUS43 KMKX 211259
RWRWI

WISCONSIN REGIONAL WEATHER ROUNDUP
NATIONAL WEATHER SERVICE MILWAUKEE/SULLIVAN WI
700 AM CST SAT JAN 21 2017

NOTE: "FAIR" INDICATES FEW OR NO CLOUDS BELOW 12,000 FEET WITH NO
SIGNIFICANT WEATHER AND/OR OBSTRUCTIONS TO VISIBILITY.

WIZ001-002-006>008-014>016-023>028-211400-
NORTHWEST WISCONSIN

CITY           SKY/WX    TMP DP  RH WIND       PRES   REMARKS
SUPERIOR ARPT  CLOUDY    34  34 100 NE3       29.52F FOG
ASHLAND        CLOUDY    34  33  96 NE6       29.53F WCI  29
HAYWARD        CLOUDY    34  33  96 E3        29.49F FOG
SIREN          CLOUDY    34  34  99 CALM      29.48F FOG
CUMBERLAND     FOG       32  32 100 E8        29.47F VSB 3/4 WCI  25
RICE LAKE      FOG       34  34 100 E6        29.50S VSB 1   WCI  29
CHETEK         CLOUDY    34  34 100 E5        29.48F FOG     WCI  30
LADYSMITH      CLOUDY    35  34  99 SE6       29.51S FOG     WCI  30
EAU CLAIRE     NOT AVBL
MENOMONIE        N/A    N/A N/A N/A MISG        N/A
NEW RICHMOND   DRIZZLE   34  34 100 E9        29.45F WCI  27
OSCEOLA        CLOUDY    35  35 100 E7        29.48F FOG     WCI  29
$$

WIZ003>005-009-010-017-018-211400-
NORTH CENTRAL WISCONSIN

CITY           SKY/WX    TMP DP  RH WIND       PRES   REMARKS
MANITOWISH WTR CLOUDY    32  32 100 E6        29.51F WCI  27
ARBOR VITAE    CLOUDY    34  33  96 E6        29.51F FOG     WCI  29
WOODRUFF       CLOUDY    34  33  96 E6        29.51F FOG     WCI  29
RHINELANDER    CLOUDY    34  33  96 E12       29.52F WCI  25
EAGLE RIVER    CLOUDY    33  33 100 SE6       29.52F WCI  27
LAND O LAKES   CLOUDY    33  33 100 E5        29.55F WCI  29
PHILLIPS       CLOUDY    32  32 100 SE5       29.49F FOG     WCI  28
TOMAHAWK       CLOUDY    33  32  97 SE5       29.52S FOG     WCI  28
MEDFORD        CLOUDY    32  32  99 E7        29.49F FOG     WCI  26
MERRILL        CLOUDY    33  33 100 E5          N/A  FOG     WCI  29
$$

WIZ029-030-035-036-043>047-211400-
CENTRAL WISCONSIN

CITY           SKY/WX    TMP DP  RH WIND       PRES   REMARKS
WAUSAU         FOG       33  33 100 E8        29.50F VSB 3/4 WCI  26
MOSINEE        FOG       34  34 100 E10       29.51F VSB 1/4 WCI  26
MARSHFIELD     FOG       33  32  96 E10       29.47F VSB 3/4 WCI  25
STEVENS POINT  CLOUDY    32  32 100 E9        29.52S FOG     WCI  24
WAUPACA        CLOUDY    36  35  96 CALM      29.54R FOG
WAUTOMA        FOG       35  34  96 E9        29.51F VSB 1   WCI  28
WISC RAPIDS    CLOUDY    34  34 100 E9        29.49F FOG     WCI  27
CAMP DOUGLAS   FOG       34  34 100 E7        29.46F VSB 3/4 WCI  28
$$

WIZ011>013-019>022-031-037>040-048>050-211400-
NORTHEAST WISCONSIN

CITY           SKY/WX    TMP DP  RH WIND       PRES   REMARKS
ANTIGO         FOG       32  32 100 SE6       29.53F VSB 1/2 WCI  26
SHAWANO        FOG       35  34  96 E5        29.57S VSB 1/4 WCI  31
OCONTO         CLOUDY    33  33  99 E5        29.58F VSB 1/2 WCI  29
STURGEON BAY   CLOUDY    36  35  96 E5        29.59F FOG     WCI  32
GREEN BAY      FOG       36  36 100 NE7       29.56S VSB 1/2 WCI  30
MANITOWOC      MIX PCPN  37  36  93 NE5       29.56F FOG     WCI  34
APPLETON         N/A     36  36 100 E7        29.52S FOG     WCI  30
CLINTONVILLE   FOG       34  34 100 E6        29.55F VSB 1   WCI  29
OSHKOSH        FOG       35  34  96 E6        29.52F VSB 1/2 WCI  30
$$

WIZ032>034-041-042-053>061-211400-
SOUTHWEST WISCONSIN

CITY           SKY/WX    TMP DP  RH WIND       PRES   REMARKS
LA CROSSE      LGT RAIN  39  36  89 E5        29.44R FOG
SPARTA         LGT RAIN  34  34 100 NE8       29.47F WCI  27
VIROQUA        CLOUDY    35  35 100 E9        29.43R VSB 1/2 WCI  28
BOSCOBEL       FOG       37  36  96 NE6       29.46S VSB 3/4 WCI  32
PRAIRIE DU CHI FOG       36  35  96 CALM      29.44S VSB 1/2
PLATTEVILLE    CLOUDY    38  38 100 E6        29.44S VSB 1/4 WCI  33
$$

WIZ056-057-062-063-064-067-068-211400-
SOUTH CENTRAL WISCONSIN

CITY           SKY/WX    TMP DP  RH WIND       PRES   REMARKS
REEDSBURG      FOG       34  34 100 E3        29.47S VSB 1/4
BARABOO/DELLS  FOG       35  34  99 E9        29.46F VSB<1/4 WCI  27
LONE ROCK      FOG       37  36  96 SE6       29.46S VSB 1/2 WCI  32
MINERAL POINT  SNOW      41  41 100 SE9       29.44S VSB 1/4
MADISON        FOG       38  38 100 SE5       29.48F VSB 1/2 WCI  34
MIDDLETON      CLOUDY    39  39 100 CALM      29.48S VSB 1/4
WATERTOWN      CLOUDY    38  38 100 E7        29.49F FOG     WCI  33
MONROE         FOG       39  39 100 SE8       29.45F VSB 1/4 WCI  34
JANESVILLE     FOG       43  43 100 SE7       29.48S VSB 1/2
$$

WIZ051-052-058>065-066-070>072-211400-
SOUTHEAST WISCONSIN

CITY           SKY/WX    TMP DP  RH WIND       PRES   REMARKS
MILWAUKEE      FOG       41  41 100 S3        29.52F VSB 1/8
WAUKESHA       FOG       36  36 100 E5        29.53S VSB 1/4 WCI  32
MILWAUKEE/TIMM FOG       37  36  93 CALM      29.53S VSB 1/4
RACINE         FOG       42  40  92 S9        29.53F VSB 1/4
KENOSHA        FOG       42  42 100 SE3       29.52F VSB 1/4
FOND DU LAC    CLOUDY    38  35  89 NE5       29.51F FOG     WCI  34
SHEBOYGAN      FOG       35  34  96 E6        29.54F VSB 1/4 WCI  30
WEST BEND      FOG       36  36 100 E5        29.53S VSB 1/4 WCI  32
JUNEAU         CLOUDY    37  37  99 E8        29.51S FOG     WCI  31
$$

LSZ147-162-211400-
LAKE SUPERIOR

STATION/POSITION TIME  TEMP    WIND        PRES    WAVE
                       AIR SEA DIR/SP/G            HT/PER
                 (UTC) (F)     (DEG/KT/KT) (MB)    (FT/S)
DEVILS ISLAND    1200   35     120/  8/  9 1001.5R
PORT WING        1230   33      60/  2/  3 1000.7S
SAXON HARBOR     1230   33      CALM  /  1 1000.7F
$$

LMZ867-665-643>646-211400-
LAKE MICHIGAN

STATION/POSITION TIME  TEMP    WIND        PRES    WAVE
                       AIR SEA DIR/SP/G            HT/PER
                 (UTC) (F)     (DEG/KT/KT) (MB)    (FT/S)
NORTHPORT PIER   1240   33        CALM     1003.0F
SISTER BAY       1150   35     160/  4/  7   N/A
KEWAUNEE LAKESHO 1230   36      70/  1/  3 1001.6R
SHEBOYGAN LAKESH 1200   36      20/  7/  8 1001.1F
PORT WASHINGTON  1240   38      40/  6/  7 1001.7S
KENOSHA   LAKESH 1200   40     170/  5/  6 1000.7
$$

TC  - TEMPERATURE IN CELSIUS
VSB - VISIBILITY IN STATUTE MILES
WCI - WIND CHILL INDEX
HX  - HEAT INDEX





USA.gov is the U.S. government's official web portal to all federal, state and local government web resources and services.